Location: Blankensee
(53.5126°N, 14.3055°E)
Time: 18:37:24
(UTC+00:00)

Cosmos 1898 Rocket - Pass Details

Date: 08 August 2020
Orbit: 754 x 783 km, 74.0° (Epoch: 19 September)

Event Time Altitude Azimuth Distance (km) Brightness Sun altitude
Exits shadow 01:35:50 15° 183° (S) 2,007 5.2 -13.6°
Maximum altitude 01:40:07 55° 109° (ESE) 915 4.0 -13.2°
Drops below altitude 10° 01:45:13 10° 33° (NNE) 2,303 7.5 -12.8°
Sets 01:47:37 0° 29° (NNE) 3,229 8.6 -12.5°
